Other Public Products
Issued by NWS Grand Forks, ND

Home | Current Version | Previous Version | Text Only | Print | Product List | Glossary On
Versions: 1 2 3 4 5 6 7 8 9 10 11 12 13 14 15 16 17 18 19 20 21 22 23 24 25 26 27 28 29 30 31 32 33 34 35 36 37 38 39 40 41 42 43 44 45 46 47 48 49 50
000
FPUS83 KFGF 171431
OPUFGF
PRAIRIE TO PINES WEATHER ROUNDUP
NATIONAL WEATHER SERVICE EASTERN NORTH DAKOTA/GRAND FORKS ND
900 AM CDT WED SEP 17 2014

 **SATELLITE DATA USED TO AUGMENT SKY COVER AT AUTOMATED STATIONS**
 *****  WEATHER ACROSS EASTERN NORTH DAKOTA  *****

CITY           SKY/WX    TMP DP  RH WIND       PRES   REMARKS
GRAND FORKS    MOSUNNY   50  46  86 N12       29.96R
GRAND FORKS AF SUNNY     50  49  99 N10       29.97R
GRAND CITY NWS NOT AVBL
BUXTON           N/A     54  50  87 NW7         N/A
DEVILS LAKE    SUNNY     50  43  76 NE10      29.96S
FARGO          SUNNY     53  48  83 N5        29.93S
WAHPETON ARPT  SUNNY     52  46  82 NW5       29.94R
$$

 *****  WEATHER ACROSS CENTRAL AND WESTERN NORTH DAKOTA  *****

CITY           SKY/WX    TMP DP  RH WIND       PRES   REMARKS
JAMESTOWN      SUNNY     52  47  83 N6        29.95R
BISMARCK       SUNNY     48  43  82 CALM      29.97R
MINOT          SUNNY     50  43  77 NE3       29.97R
MINOT AFB      SUNNY     49  46  91 SE7       29.96S
GARRISON         N/A     50  46  86 CALM      29.96R
WILLISTON      MOSUNNY   47  39  74 CALM      29.96S HAZE
DICKINSON      PTSUNNY   49  45  86 CALM      29.95S
HETTINGER      MOSUNNY   45  42  89 CALM      29.98R
$$

 *****  OTHER OBSERVATIONS NORTHEAST NORTH DAKOTA  *****

CITY           SKY/WX    TMP DP  RH WIND       PRES   REMARKS
WALHALLA         N/A     45  45 100 N13       30.03R
LANGDON        FOG       46  45  93 NE12      30.00R VSB 1/4
CAVALIER       FOG       46  46 100 N12       30.01R VSB 1/4
GRAFTON        PTSUNNY   46  46 100 N15G21    29.99R
CANDO          CLOUDY    45  45 100 NE9       30.01R FOG
FORT TOTTEN    NOT AVBL
ROLLA          CLOUDY    45  45 100 NE13      30.03R
RUGBY          FAIR      48  46  93 E13       29.98R
 ***** THE ABOVE OBSERVATIONS ARE NON NWS ARE NOT QUALITY
        CONTROLLED AND MAY MIS-REPORT RAIN FOR SNOW...
$$

 *****  OTHER OBSERVATIONS SOUTHEAST NORTH DAKOTA *****

CITY           SKY/WX    TMP DP  RH WIND       PRES   REMARKS
COOPERSTOWN    NOT AVBL
VALLEY CITY    FAIR      54  52  94 N5        29.96R
OAKES            N/A     52  52 100 NW6       29.95R
GWINNER        SUNNY     55  50  82 N5        29.96R
SHEYENNE NWR     N/A     52  48  87 N3        29.95
BUFFALO          N/A     55  46  71 N5          N/A
WYNDMERE       NOT AVBL
 ***** THE ABOVE OBSERVATIONS ARE NON NWS ARE NOT QUALITY
       CONTROLLED AND MAY MIS-REPORT RAIN FOR SNOW...
$$

  *****  WEATHER ACROSS NORTHERN MINNESOTA  *****

CITY           SKY/WX    TMP DP  RH WIND       PRES   REMARKS
FLAG ISLAND    CLOUDY    45  39  81 NE10      30.01R
WARROAD        CLOUDY    48  46  93 NE12      30.00R
ROSEAU         CLOUDY    50  45  81 NE13      29.99R
HALLOCK        CLOUDY    48  46  93 N13       29.99R
THF RVR FALLS  SUNNY     54  45  71 CALM      29.95R
HALSTAD          N/A     56  46  69 NE2         N/A
FOSSTON        SUNNY     54  48  82 CALM      29.94F
BAUDETTE       CLOUDY    49  46  90 NE13      29.97R
WASKISH        CLOUDY    52  50  93 CALM      29.95R
CROOKSTON      SUNNY     48  45  87 NW6       29.96R
$$
  *****  WEATHER ACROSS CENTRAL AND WEST MINNESOTA  *****

CITY           SKY/WX    TMP DP  RH WIND       PRES   REMARKS
BEMIDJI        SUNNY     54  47  77 CALM      29.94S
PARK RAPIDS    SUNNY     51  45  79 CALM      29.94R
WADENA         SUNNY     52  48  87 CALM      29.94R
DETROIT LAKES  SUNNY     54  50  87 CALM      29.95R
MOORHEAD       SUNNY     54  54 100 N6        29.95R
FERGUS FALLS   SUNNY     55  50  82 CALM      29.94R
ELBOW LAKE     FAIR      55  51  85 CALM      29.93R
MORRIS MN      SUNNY     57  52  82 CALM      29.93R
STAPLES        SUNNY     52  48  87 CALM      29.94S
WHEATON        SUNNY     52  52 100 CALM      29.96R
$$
  *****  WEATHER ELSEWHERE ACROSS MINNESOTA  *****

CITY           SKY/WX    TMP DP  RH WIND       PRES   REMARKS
DULUTH         MOSUNNY   56  45  66 N8G21     29.94R
INTRNTL FALLS  CLOUDY    49  45  86 NE13      29.96R
ELY            PTSUNNY   54  46  76 CALM      29.92S
CLOQUET        SUNNY     57  46  67 NW10G16   29.94R
BRAINERD       SUNNY     51  48  89 SW3       29.94S
HIBBING        SUNNY     51  44  77 CALM      29.93F
ALEXANDRIA     SUNNY     56  50  80 SW5       29.95R
SAINT CLOUD    SUNNY     57  51  80 CALM      29.94S
MINNEAPOLIS    MOSUNNY   59  49  69 S8        29.95F
$$

  *****  WEATHER ACROSS SOUTH DAKOTA  *****

CITY           SKY/WX    TMP DP  RH WIND       PRES   REMARKS
SIOUX FALLS    MOSUNNY   58  51  78 VRB3      29.93S
BROOKINGS      NOT AVBL
WATERTOWN      SUNNY     54  50  86 CALM      29.93S
HURON          MOSUNNY   53  49  86 CALM      29.92S
SISSETON         N/A     55  53  93 CALM      29.92R
ABERDEEN       PTSUNNY   48  48 100 CALM      29.95S FOG
MITCHELL       SUNNY     54  52  93 SW3       29.93R
PIERRE         SUNNY     54  52  93 NE3       29.91S
MOBRIDGE       SUNNY     55  51  86 N3        29.93R
RAPID CITY     SUNNY     61  42  49 NW8       29.97R
$$

  *****  SOME WEATHER IN NEARBY STATES *****

CITY           SKY/WX    TMP DP  RH WIND       PRES   REMARKS
GLASGOW MT     PTSUNNY   53  41  63 E12       29.90R
GREAT FALLS MT PTCLDY    56  46  69 S9        29.90S
CHEYENNE WY    SUNNY     57  38  48 N3        30.14R
SCOTTSBLUFF NE SUNNY     55  47  74 W5        30.01R
OMAHA NE       MOSUNNY   61  55  81 S5        29.94R
DES MOINES IA  CLOUDY    60  52  74 SE5       29.96S
DAVENPORT IA   SUNNY     56  51  84 S5        30.02S
CHICAGO IL     MOSUNNY   56  46  69 W3        30.04F
EAU CLAIRE WI  PTSUNNY   53  47  79 CALM      29.98S
LA CROSSE WI   CLOUDY    54  49  83 SE6       30.00S
$$

  *****  SOME NATIONAL WEATHER *****

CITY           SKY/WX    TMP DP  RH WIND       PRES   REMARKS
LA GUARDIA NY  MOSUNNY   64  47  53 NE6       30.06R
RALEIGH NC     PTSUNNY   70  61  73 NE9       30.00S
ATLANTA GA     MOSUNNY   74  62  66 N9        30.00S
NEW ORLEANS LA PTSUNNY   82  73  74 NE7       29.98R
OKLAHOMA CITY  PTSUNNY   74  69  85 S9        29.96S
ALBUQUERQUE NM CLOUDY    63  57  81 E3        30.18S
SALT LAKE CITY PTCLDY    70  43  37 SE9       29.97R
LOS ANGELES CA PTCLDY    75  64  68 W3        29.73R
BOISE ID       CLOUDY    70  42  36 E6        29.85R
SEATTLE WA     MOCLDY    59  54  83 N5        29.80S
$$

*** WEATHER ACROSS MANITOBA...SASKATCHEWAN AND ONTARIO ***
                ***ONTARIO***

CITY           SKY/WX    TMP DP  RH WIND       PRES   REMARKS
GERALDTON      PTSUNNY   32  32 100 NE5       30.05S
THUNDER BAY    LGT RAIN  41  39  93 NE6       30.02R
SIOUX LOOKOUT  DRIZZLE   37  36  93 E2        30.05R
TORONTO        MOSUNNY   61  48  63 W10       30.02F
BIG TROUT LK   CLOUDY    36  23  60 NW9G17    30.09S
PICKLE LAKE    PTSUNNY   34  32  93 NE2       30.09R FOG
DRYDEN         CLOUDY    37  37 100 NE12G17   30.03R
KENORA         DRIZZLE   39  37  93 E9        30.04R
$$
                *** MANITOBA***

CITY           SKY/WX    TMP DP  RH WIND       PRES   REMARKS
BRANDON        CLOUDY    43  41  93 E12       30.07R
DAUPHIN        CLOUDY    41  39  93 E12       30.11R
ISLAND LAKE    MOSUNNY   37  28  70 CALM      30.16R
PILOT MOUND      N/A     45  43  93 NE7         N/A
THE PAS        PTSUNNY   36  30  80 E8        30.16S
THOMPSON       MOSUNNY   28  27  93 CALM      30.20R
WINNIPEG       CLOUDY    41  39  93 NE13      30.07R
LYNN LAKE      SUNNY     27  27 100 SE2       30.17S
CHURCHILL      CLOUDY    32  23  69 N16G24    30.14R WCI  21
GILLAM         CLOUDY    34  23  64 NW12      30.17
$$
                ***SASKATCHEWAN***

CITY           SKY/WX    TMP DP  RH WIND       PRES   REMARKS
ESTEVAN        PTSUNNY   46  43  87 E8        29.99R
KINDERSLEY     FOG       43  43 100 E14       29.90F VSB 3/8
LLOYDMINSTER   FOG       45  43  93 SE13      29.89  VSB 1/2
PRINCE ALBERT  CLOUDY    41  41 100 E8        30.04S FOG
REGINA         CLOUDY    46  45  93 E14       29.97R



USA.gov is the U.S. government's official web portal to all federal, state and local government web resources and services.